SCP
1 1 1 1 1 2 1 1 1 1 2 3 3 3 3 3 2 2 2 1 1 1 1 1 1 1 1 1 0 0 0 0 0 0 0 0 0 0 0 0 0 0 0
1 1 1 1 1 2 2 2 2 2 2 3 4 4 4 3 3 2 2 1 1 1 1 1 1 1 1 1 0 0 0 0 0 0 0 0 0 0 0 0 0 0 0
0 0 1 1 1 1 2 2 2 2 2 3 4 4 4 4 3 3 2 1 1 1 1 1 1 1 1 0 0 0 0 0 0 0 0 0 0 0 0 0 0 0 0
0 0 0 0 0 1 1 1 1 2 2 3 4 4 4 4 3 2 2 2 1 1 1 1 1 0 0 0 0 0 0 0 0 0 0 0 0 0 0 0 0 0 0
0 0 0 0 0 0 0 0 1 1 1 2 2 3 3 2 2 2 1 1 1 1 1 1 1 0 0 0 0 0 0 0 0 0 0 0 0 0 0 0 0 0 0
0 0 0 0 0 0 0 0 0 0 1 1 1 1 1 1 1 1 1 1 1 1 1 0 0 0 0 0 0 0 0 0 0 0 0 0 0 0 0 0 0 0 0
0 0 0 0 0 0 0 0 0 0 0 0 0 1 0 0 0 0 0 0 0 0 0 0 0 0 0 0 0 0 0 0 0 0 0 0 0 0 0 0 0 0 0
0 0 0 0 0 0 0 0 0 0 0 0 0 0 0 0 0 0 0 0 0 0 0 0 0 0 0 0 0 0 0 0 0 0 0 0 0 0 0 0 0 0 0
0 0 0 0 0 0 0 0 0 0 0 0 0 0 -0 -0 -0 -0 0 0 0 0 0 0 0 0 0 0 0 0 0 0 0 0 0 0 0 0 0 0 0 0 0
0 0 0 -0 -0 0 0 0 0 0 0 0 0 -0 -0 -0 -0 -0 -0 -0 -0 -0 0 0 0 0 0 0 0 0 0 0 0 0 0 0 0 0 0 0 0 0 0
-0 -0 -0 -0 -0 -0 0 0 0 0 0 0 0 -0 -0 -0 -0 -0 -0 -0 -0 -0 -0 -0 -0 0 0 0 0 0 0 0 0 0 0 0 0 0 0 0 0 0 0
-0 -0 -0 -0 -0 -0 -0 -0 -0 -0 -0 -0 -0 -0 -0 -0 -0 -0 -0 -0 -0 -0 -0 -0 -0 -0 0 0 0 0 0 0 0 0 0 0 0 0 0 0 0 0 0
-0 -0 -0 -0 -0 -0 0 -0 -0 -0 -0 -0 -0 -0 -0 -0 -0 -0 -0 -0 -0 0 0 0 0 0 0 0 0 0 0 0 0 0 0 0 0 0 0 0 0 0 0
-0 -0 -0 0 0 0 0 0 0 0 -0 -0 -0 -0 -0 -0 -0 -0 -0 0 0 0 0 0 0 0 0 0 0 0 0 0 0 0 0 0 0 0 0 0 0 0 0
0 0 0 0 0 0 0 0 0 0 0 0 0 0 0 -0 -0 -0 -0 -0 0 0 0 0 0 0 0 0 0 0 0 0 0 0 0 0 0 0 0 0 0 0 0
0 0 0 0 0 0 0 0 0 0 0 0 0 0 0 0 -0 -0 -0 -0 0 0 0 0 0 0 0 0 0 0 0 0 0 0 0 0 0 0 0 0 0 0 0
0 0 0 0 0 0 0 0 0 0 0 0 0 0 0 0 0 0 0 0 0 0 0 0 0 0 0 0 0 0 0 0 0 0 0 0 0 0 0 0 0 0 0
0 0 0 0 0 0 0 0 0 0 0 0 0 0 0 0 0 0 0 0 0 0 0 0 0 0 0 0 0 0 0 0 0 0 0 0 0 0 0 0 0 0 0
0 0 0 0 0 0 0 0 0 0 0 0 0 0 0 0 0 0 0 0 0 0 0 0 0 0 0 0 0 0 0 0 0 0 0 0 0 0 0 0 0 0 0
0 0 0 0 0 0 0 0 0 0 0 0 0 0 0 0 0 0 0 0 0 0 0 0 0 0 0 0 0 0 0 0 0 0 0 0 0 -0 -0 0 0 0 0
0 0 0 0 0 0 0 0 0 0 0 0 0 0 0 0 0 0 0 0 0 0 0 0 0 0 0 0 0 0 0 0 0 0 0 0 -0 -0 -0 0 0 0 0
0 0 0 0 0 0 0 0 0 0 0 0 0 0 0 0 0 0 0 0 0 0 0 0 0 0 0 0 0 0 0 0 0 0 0 0 -0 -0 -0 -0 0 0 0
0 0 0 0 0 0 0 0 0 0 0 0 0 0 0 0 0 0 0 0 0 0 0 0 0 0 0 0 0 0 0 0 0 0 0 0 -0 -0 -0 -0 0 0 0
0 0 0 0 0 0 0 0 0 0 0 0 0 0 0 0 0 0 0 0 0 0 0 0 0 0 0 0 0 0 0 0 0 0 0 0 0 0 0 0 0 0 0
0 0 0 0 0 0 0 0 0 0 0 0 0 0 0 0 0 0 0 0 0 0 0 0 0 0 0 0 0 0 0 0 0 0 0 0 0 0 0 0 0 0 0
0 0 0 0 0 0 0 0 0 0 0 0 0 0 0 0 0 0 0 0 0 0 0 0 0 0 0 0 0 0 0 0 0 0 0 0 0 0 0 0 0 0 0
Wind_Speed
12 13 13 13 11 10 9 8 5 7 7 6 6 6 5 4 4 4 5 4 3 3 5 3 2 1 2 2 1 1 1 1 1 2 3 2 3 3 3 2 2 2 5
11 12 12 13 14 14 14 13 10 5 7 6 8 7 7 5 5 4 4 5 4 3 4 4 3 2 2 1 1 1 1 1 1 1 1 2 3 3 2 3 2 2 2
11 11 11 11 12 13 14 13 14 11 5 6 6 6 6 5 5 5 4 4 4 3 3 3 4 3 3 3 3 3 4 3 3 3 3 3 3 2 3 4 4 3 1
9 9 9 11 12 12 13 14 14 15 10 3 5 8 7 7 6 5 4 4 3 3 3 2 3 2 2 3 4 5 4 5 4 4 3 3 3 2 2 3 2 4 4
9 9 10 11 11 12 12 12 12 12 12 8 2 4 5 5 4 5 6 4 3 3 3 2 2 1 2 3 4 5 4 4 4 4 3 2 2 3 3 2 3 2 1
11 11 11 11 11 11 10 10 10 11 11 10 8 6 7 7 7 7 6 3 3 2 3 2 1 1 1 2 3 4 4 3 4 3 3 3 2 2 2 3 3 3 2
12 12 12 12 11 11 11 10 10 10 10 10 9 8 7 6 6 5 5 4 3 2 2 2 1 0 1 2 2 2 2 3 4 4 2 2 2 1 2 2 3 3 2
12 12 12 11 11 11 10 10 9 9 8 8 8 8 7 5 4 5 4 3 2 1 2 2 2 2 2 2 1 1 3 2 3 4 3 2 2 2 2 3 2 2 2
13 12 11 11 11 11 10 9 8 8 8 7 7 6 6 5 5 4 4 3 2 1 1 2 3 3 4 3 3 2 3 2 1 0 1 1 2 2 2 2 3 3 3
13 12 11 11 10 9 8 8 8 7 7 6 5 5 5 5 4 3 3 1 0 1 2 4 6 6 6 5 3 1 1 1 1 1 1 2 2 2 2 3 3 3 4
13 12 11 10 9 8 8 7 7 7 7 6 6 5 4 3 2 1 1 1 2 3 4 6 6 6 6 6 5 3 2 2 3 4 5 5 4 3 3 3 3 3 3
11 11 10 9 9 9 8 8 7 6 6 5 5 5 5 4 3 2 2 2 3 4 5 5 5 5 4 4 6 5 4 3 4 4 2 3 3 3 2 2 3 3 4
9 8 7 7 8 8 7 7 7 6 5 4 5 5 5 4 4 4 4 4 4 5 5 5 5 4 3 3 3 4 5 5 6 5 3 2 1 2 2 3 3 3 3
5 6 6 6 6 6 7 7 7 6 5 4 4 5 5 5 4 4 4 5 5 5 5 4 3 2 1 2 2 2 3 3 4 4 5 4 2 2 1 1 1 2 2
6 7 6 6 6 6 6 6 5 5 5 5 5 5 5 5 5 5 5 5 6 6 6 7 7 7 7 8 8 6 5 4 4 3 3 3 5 7 4 2 2 1 0
9 8 7 6 6 6 6 6 6 6 6 6 6 6 6 6 6 6 6 6 6 7 8 8 8 9 9 12 12 9 6 6 5 3 2 3 6 7 6 4 3 1 1
9 8 7 7 6 6 5 6 6 6 7 7 7 7 7 7 7 7 7 7 7 7 8 8 8 7 9 15 14 13 7 6 5 5 3 1 3 7 6 6 6 4 3
8 8 6 6 7 7 5 5 6 6 6 6 6 6 6 6 6 6 6 7 6 6 6 7 6 6 9 15 15 16 7 5 5 5 3 1 1 1 1 3 4 4 5
6 7 6 6 6 6 6 5 6 6 6 6 6 6 6 6 6 6 6 5 5 5 5 5 6 6 7 14 16 15 6 4 4 3 3 3 4 4 4 2 1 2 2
5 7 6 6 6 6 5 5 6 6 6 6 6 5 5 5 6 6 5 4 4 4 3 3 4 5 5 9 15 15 6 6 6 4 4 8 7 6 6 4 2 2 1
5 6 6 5 5 4 4 5 5 5 4 4 4 4 4 4 5 5 5 5 4 4 4 4 3 4 4 7 11 12 5 5 6 4 4 5 8 7 6 4 3 2 2
5 6 5 6 5 4 4 4 3 3 2 2 2 3 3 5 6 5 4 5 5 5 5 5 5 4 5 7 9 11 9 7 4 4 3 4 7 6 4 2 3 3 3
5 5 5 6 6 5 4 4 2 1 0 2 1 2 3 4 5 5 5 5 5 5 5 5 5 5 5 8 14 14 12 9 4 2 4 4 5 5 2 1 0 1 1
5 5 6 6 6 6 4 4 4 3 1 2 2 3 4 5 5 4 5 5 5 5 5 6 5 5 5 7 8 8 8 8 5 3 3 3 3 3 2 1 1 1 1
5 5 5 5 7 6 5 5 5 6 4 1 3 4 4 4 5 5 5 5 5 4 4 4 5 5 6 8 12 9 7 6 5 4 3 3 3 3 3 3 3 3 3
5 5 5 5 6 7 6 6 6 6 5 3 4 3 3 3 3 4 4 7 6 5 6 6 6 4 6 10 11 12 14 13 11 7 6 6 6 6 5 5 5 4 4
Wind_Direction
12 14 2 356 347 338 320 300 249 196 184 169 168 163 162 157 153 156 159 154 138 121 120 128 143 120 126 145 186 112 106 53 343 319 321 313 267 256 200 199 271 254 138
8 12 5 4 0 355 347 336 324 274 212 184 177 173 165 161 149 143 141 143 150 153 147 156 153 143 131 164 218 150 151 208 236 214 235 315 320 302 262 192 193 284 165
11 8 3 1 0 358 351 342 336 325 286 208 182 170 154 148 140 146 145 152 160 161 148 151 155 175 174 190 214 212 197 207 231 227 183 185 228 274 297 233 192 218 220
9 8 5 3 2 1 354 349 348 345 334 284 196 174 158 155 151 143 134 128 125 132 137 139 144 164 180 197 216 219 211 205 222 241 228 211 189 174 288 313 247 202 197
6 8 12 10 10 7 2 357 360 2 2 5 33 142 131 119 111 114 117 107 89 88 102 101 115 146 185 213 221 227 211 201 210 227 229 238 243 217 192 255 297 294 191
8 17 18 16 14 12 10 7 14 19 23 29 39 70 103 112 115 113 112 102 91 76 77 94 101 124 209 238 240 230 212 204 216 228 219 205 208 215 194 210 240 259 259
9 18 20 18 16 14 15 16 25 30 34 44 49 57 76 95 109 114 115 118 109 112 126 120 132 179 261 279 287 279 250 220 222 225 229 228 230 204 187 204 230 238 259
15 23 24 22 17 15 17 20 28 34 39 52 58 58 62 69 81 88 98 101 103 111 142 162 179 205 229 254 252 298 281 256 238 217 211 207 234 219 202 201 203 229 253
13 24 25 22 17 16 17 21 29 37 40 51 59 63 67 74 78 77 78 79 75 90 160 213 213 219 218 224 232 206 256 239 284 346 268 217 227 234 229 219 199 191 216
10 21 22 19 15 12 13 23 31 40 40 45 51 64 68 73 78 76 69 65 349 255 219 225 223 219 207 203 209 219 274 344 231 174 267 264 237 232 225 222 222 205 203
9 15 14 10 11 10 13 17 22 30 31 33 36 44 52 62 74 91 170 225 238 235 230 233 231 221 202 190 181 196 225 241 260 222 213 222 220 215 220 224 228 224 207
11 9 8 12 13 16 17 19 20 22 22 24 26 24 23 20 12 350 323 301 288 272 257 254 249 244 203 184 172 187 201 219 252 271 262 237 201 199 220 216 224 229 221
0 1 6 17 20 22 24 25 25 21 17 20 22 15 6 358 350 342 339 332 316 294 279 270 260 244 200 184 186 189 201 215 220 223 230 250 208 194 210 212 223 230 233
352 6 12 18 30 33 34 35 34 27 24 29 29 20 6 359 355 354 349 341 334 326 332 332 330 336 42 35 348 300 249 244 242 227 207 201 205 152 149 195 217 227 230
25 30 24 24 34 38 37 38 41 39 37 36 34 28 25 18 16 16 15 12 8 8 9 9 20 27 38 28 12 346 321 290 267 262 250 173 127 109 99 85 44 21 293
25 30 30 29 38 45 46 40 45 45 46 45 42 36 34 31 29 27 25 30 32 28 27 29 34 41 36 19 16 358 330 317 306 289 268 165 153 151 150 152 150 116 40
18 18 27 28 34 49 59 56 49 46 45 46 44 39 36 35 30 27 24 31 42 37 35 33 35 43 32 17 7 357 327 302 297 300 294 257 164 163 177 188 193 200 200
12 5 17 31 29 29 47 66 64 53 42 40 46 43 36 31 28 30 34 28 31 38 39 30 27 30 30 15 3 350 318 286 281 282 282 295 160 160 139 172 194 195 186
8 354 3 26 26 23 28 45 57 57 43 33 38 38 33 25 23 24 32 36 30 34 49 30 22 21 23 15 7 358 329 330 324 323 12 40 63 57 46 26 48 117 132
9 352 358 15 14 8 16 36 51 53 42 29 28 27 25 26 27 20 20 27 30 29 56 50 32 32 18 15 15 9 359 355 346 354 52 60 64 52 37 21 34 66 75
17 358 354 359 347 346 5 39 49 56 56 35 23 16 10 26 48 29 20 22 19 19 28 40 33 35 28 15 15 12 11 351 344 4 40 50 44 40 31 25 36 66 22
18 2 349 340 326 348 13 25 59 65 79 71 29 10 36 37 37 31 29 25 16 25 28 23 20 12 20 19 2 357 356 349 349 4 22 28 17 9 0 19 62 39 10
14 356 344 343 344 359 4 355 36 46 248 111 54 26 62 69 50 32 32 28 27 26 24 17 15 11 15 11 4 358 356 355 345 346 354 346 351 342 327 188 103 335 325
0 354 5 0 340 335 348 8 5 334 286 142 95 68 63 68 69 44 36 40 27 22 18 15 10 8 15 11 360 351 352 353 355 351 345 343 359 356 2 87 200 214 86
357 8 14 346 334 349 13 27 7 342 340 94 99 87 80 75 86 73 45 45 58 40 21 6 1 11 9 356 353 0 360 355 1 355 7 20 21 29 35 39 44 53 65
4 4 358 346 350 360 15 21 1 343 349 43 74 70 79 80 107 123 96 52 66 60 52 38 25 37 17 357 4 8 13 19 26 36 35 32 32 38 41 43 43 46 49